Retour au catalogue

QIANFAN-142

ActifCommunicationsPO
NORAD 69088·PAYLOAD·🇨🇳 China

Lancé May 12, 2026 depuis Taiyuan Satellite Launch Center

Loading…

Prochains Passages (prochaines 24 heures)

TLE

FraisSource: Space-Track

Époque: Sep 14, 2026, 21:23 UTC

1 69088U 26104R   26257.89111955  .00000120  00000-0  16705-3 0  9990
2 69088  88.9903 332.2868 0002444 109.4820 250.6596 13.51030857 17284

Suivez QIANFAN-142 en temps réel avec AllMySat

Download on the App Store